| time (UTC) | temp F | wind direction | speed MPH | gust MPH | rain 1hr in | rain 24hr in | rain mn in | humidity % | barometer mb |
| 20260502190014 | 66 | 57 | 2.0 | 8.0 | 0.00 | 0.00 | 0.00 | 26 | 1019.7 |
| 20260502184514 | 65 | 86 | 1.0 | 7.0 | 0.00 | 0.00 | 0.00 | 28 | 1020.1 |
| 20260502183011 | 66 | 355 | 2.0 | 6.0 | 0.00 | 0.00 | 0.00 | 28 | 1020.2 |
| 20260502181508 | 65 | 308 | 2.0 | 9.0 | 0.00 | 0.00 | 0.00 | 30 | 1020.5 |
| 20260502170107 | 62 | 55 | 0.0 | 6.0 | 0.00 | 0.00 | 0.00 | 33 | 1021.3 |
| 20260502163058 | 61 | 150 | 2.0 | 11.0 | 0.00 | 0.00 | 0.00 | 33 | 1021.4 |
| 20260502161603 | 60 | 140 | 3.0 | 9.0 | 0.00 | 0.00 | 0.00 | 34 | 1021.6 |
| 20260502151604 | 57 | 57 | 4.0 | 9.0 | 0.00 | 0.00 | 0.00 | 39 | 1021.8 |
| 20260502123023 | 41 | 68 | 3.0 | 6.0 | 0.00 | 0.00 | 0.00 | 78 | 1020.7 |
| 20260502121519 | 40 | 56 | 2.0 | 5.0 | 0.00 | 0.00 | 0.00 | 79 | 1020.4 |
| 20260502114515 | 40 | 44 | 2.0 | 7.0 | 0.00 | 0.00 | 0.00 | 79 | 1020.2 |
| 20260502113013 | 40 | 49 | 3.0 | 6.0 | 0.00 | 0.00 | 0.00 | 79 | 1020.1 |
| 20260502111511 | 40 | 61 | 3.0 | 6.0 | 0.00 | 0.00 | 0.00 | 80 | 1019.8 |
| 20260502110011 | 40 | 34 | 4.0 | 7.0 | 0.00 | 0.00 | 0.00 | 81 | 1019.7 |
| 20260502104507 | 41 | 34 | 4.0 | 8.0 | 0.00 | 0.00 | 0.00 | 79 | 1019.7 |
| 20260502103003 | 42 | 44 | 6.0 | 9.0 | 0.00 | 0.00 | 0.00 | 78 | 1019.6 |
| 20260502101619 | 44 | 76 | 6.0 | 8.0 | 0.00 | 0.00 | 0.00 | 77 | 1019.5 |
| 20260502100104 | 44 | 69 | 5.0 | 8.0 | 0.00 | 0.00 | 0.00 | 78 | 1019.3 |
| 20260502090113 | 44 | 61 | 3.0 | 7.0 | 0.00 | 0.00 | 0.00 | 82 | 1019.1 |
| 20260502070050 | 45 | 65 | 0.0 | 0.0 | 0.00 | 0.00 | 0.00 | 81 | 1019.1 |
| 20260502064540 | 45 | 65 | 0.0 | 0.0 | 0.00 | 0.00 | 0.00 | 76 | 1018.6 |
| 20260502063040 | 46 | 65 | 0.0 | 0.0 | 0.00 | 0.00 | 0.00 | 76 | 1019.0 |
| 20260502061528 | 48 | 50 | 0.0 | 5.0 | 0.00 | 0.00 | 0.00 | 76 | 1019.1 |
| 20260502060027 | 48 | 337 | 0.0 | 2.0 | 0.00 | 0.00 | 0.00 | 77 | 1018.5 |
| 20260502054533 | 48 | 342 | 0.0 | 2.0 | 0.00 | 0.00 | 0.00 | 77 | 1018.9 |
| 20260502053024 | 49 | 317 | 1.0 | 2.0 | 0.00 | 0.00 | 0.00 | 75 | 1018.6 |
| 20260502051521 | 50 | 324 | 0.0 | 1.0 | 0.00 | 0.00 | 0.00 | 73 | 1018.6 |
| 20260502050031 | 50 | 304 | 3.0 | 5.0 | 0.00 | 0.00 | 0.00 | 72 | 1018.5 |
| 20260502044516 | 50 | 282 | 2.0 | 4.0 | 0.00 | 0.00 | 0.00 | 73 | 1018.5 |
| 20260502043020 | 50 | 289 | 1.0 | 2.0 | 0.00 | 0.00 | 0.00 | 73 | 1018.4 |
| 20260502041522 | 49 | 305 | 0.0 | 0.0 | 0.00 | 0.00 | 0.00 | 73 | 1018.0 |
| 20260502040015 | 49 | 192 | 0.0 | 0.0 | 0.00 | 0.00 | 0.00 | 73 | 1017.9 |
| 20260502034521 | 49 | 192 | 0.0 | 0.0 | 0.00 | 0.00 | 0.00 | 74 | 1017.8 |
| 20260502033015 | 49 | 192 | 0.0 | 0.0 | 0.00 | 0.00 | 0.00 | 71 | 1017.5 |
| 20260502031514 | 50 | 107 | 0.0 | 0.0 | 0.00 | 0.00 | 0.00 | 69 | 1017.5 |
| 20260502030013 | 51 | 87 | 0.0 | 2.0 | 0.00 | 0.00 | 0.00 | 69 | 1017.4 |
| 20260502024517 | 52 | 86 | 0.0 | 1.0 | 0.00 | 0.00 | 0.00 | 67 | 1017.3 |
| 20260502023013 | 53 | 85 | 1.0 | 3.0 | 0.00 | 0.00 | 0.00 | 65 | 1017.1 |
| 20260502021512 | 53 | 61 | 0.0 | 2.0 | 0.00 | 0.00 | 0.00 | 65 | 1016.9 |
| 20260502020012 | 53 | 57 | 5.0 | 7.0 | 0.00 | 0.00 | 0.00 | 66 | 1016.9 |
| 20260502014515 | 53 | 69 | 2.0 | 6.0 | 0.00 | 0.00 | 0.00 | 64 | 1016.9 |
| 20260502013011 | 54 | 44 | 3.0 | 5.0 | 0.00 | 0.00 | 0.00 | 61 | 1016.9 |
| 20260502011510 | 55 | 47 | 4.0 | 9.0 | 0.00 | 0.00 | 0.00 | 61 | 1016.7 |
| 20260502010012 | 56 | 38 | 4.0 | 7.0 | 0.00 | 0.00 | 0.00 | 59 | 1016.8 |
| 20260502004509 | 57 | 63 | 1.0 | 6.0 | 0.00 | 0.00 | 0.00 | 56 | 1016.4 |
| 20260502003009 | 58 | 82 | 6.0 | 10.0 | 0.00 | 0.00 | 0.00 | 54 | 1016.3 |
| 20260502001507 | 59 | 53 | 5.0 | 10.0 | 0.00 | 0.00 | 0.00 | 54 | 1016.7 |
| 20260502000007 | 59 | 58 | 4.0 | 10.0 | 0.00 | 0.00 | 0.00 | 50 | 1016.4 |
| 20260501234506 | 59 | 76 | 6.0 | 13.0 | 0.00 | 0.00 | 0.00 | 49 | 1015.9 |
| 20260501233006 | 59 | 86 | 7.0 | 14.0 | 0.00 | 0.00 | 0.00 | 49 | 1015.8 |
| 20260501231504 | 59 | 74 | 13.0 | 19.0 | 0.00 | 0.00 | 0.00 | 50 | 1016.1 |
| 20260501230004 | 59 | 72 | 8.0 | 13.0 | 0.00 | 0.00 | 0.00 | 52 | 1016.6 |
| 20260501224504 | 59 | 69 | 4.0 | 9.0 | 0.00 | 0.00 | 0.00 | 54 | 1016.4 |
| 20260501223004 | 58 | 60 | 11.0 | 19.0 | 0.00 | 0.00 | 0.00 | 53 | 1015.7 |
| 20260501221507 | 59 | 42 | 13.0 | 23.0 | 0.00 | 0.00 | 0.00 | 54 | 1015.8 |
| 20260501220006 | 59 | 80 | 13.0 | 20.0 | 0.00 | 0.00 | 0.00 | 55 | 1015.7 |
| 20260501214501 | 59 | 68 | 11.0 | 27.0 | 0.00 | 0.00 | 0.00 | 57 | 1015.7 |
| 20260501213001 | 58 | 58 | 12.0 | 18.0 | 0.00 | 0.00 | 0.00 | 60 | 1015.7 |
| 20260501211600 | 63 | 76 | 6.0 | 12.0 | 0.00 | 0.00 | 0.00 | 46 | 1015.3 |
| 20260501210059 | 67 | 289 | 6.0 | 10.0 | 0.00 | 0.00 | 0.00 | 32 | 1015.3 |
| 20260501204559 | 69 | 276 | 3.0 | 11.0 | 0.00 | 0.00 | 0.00 | 32 | 1015.8 |
| 20260501203059 | 68 | 306 | 6.0 | 13.0 | 0.00 | 0.00 | 0.00 | 35 | 1016.3 |
| 20260501201556 | 66 | 269 | 5.0 | 14.0 | 0.00 | 0.00 | 0.00 | 34 | 1016.4 |
| 20260501200053 | 65 | 276 | 4.0 | 8.0 | 0.00 | 0.00 | 0.00 | 35 | 1016.7 |
| 20260501194558 | 65 | 345 | 3.0 | 8.0 | 0.00 | 0.00 | 0.00 | 35 | 1016.8 |
| 20260501193050 | 65 | 244 | 0.0 | 4.0 | 0.00 | 0.00 | 0.00 | 37 | 1017.0 |
| 20260501191553 | 65 | 309 | 2.0 | 7.0 | 0.00 | 0.00 | 0.00 | 36 | 1017.0 |